When you browse on this site, cookies collect data to enhance your experience and personalize the content and advertising you see.
Visit our Privacy Policy to learn more. By continuing to use the site, you agree to this use of cookies and data.
  • In United Kingdom
  • List of Countries
  • For 7 days
  • Water Temperature
  • Weather Map
  • Weather Widgets
  • user-avatar
    Login

    Hourly Weather Smolan

    Today, 18 January, Saturday

    Time Temperature Precipitation Wind Pressure Humidity
    00:00 -3°C° 0 mm 1 mps 659 mmHg 72%
    01:00 -3°C° 0 mm 1 mps 659 mmHg 72%
    02:00 -3°C° 0 mm 1 mps 659 mmHg 71%
    03:00 -3°C° 0 mm 1 mps 659 mmHg 69%
    04:00 -3°C° 0 mm 1 mps 658 mmHg 67%
    05:00 -3°C° 0 mm 1 mps 658 mmHg 65%
    06:00 -3°C° 0 mm 1 mps 658 mmHg 63%
    07:00 -3°C° 0 mm 1 mps 658 mmHg 61%
    08:00 -3°C° 0 mm 1 mps 658 mmHg 59%
    09:00 -2°C° 0 mm 1 mps 658 mmHg 54%
    10:00 0°C° 0 mm 1 mps 659 mmHg 49%
    11:00 +2°C° 0 mm 1 mps 660 mmHg 44%
    12:00 +3°C° 0 mm 1 mps 659 mmHg 45%
    13:00 +3°C° 0 mm 1 mps 659 mmHg 46%
    14:00 +4°C° 0 mm 1 mps 659 mmHg 47%
    15:00 +2°C° 0 mm 1 mps 658 mmHg 57%
    16:00 +1°C° 0 mm 1 mps 657 mmHg 68%
    17:00 -1°C° 0 mm 1 mps 656 mmHg 78%
    18:00 -2°C° 0 mm 1 mps 656 mmHg 81%
    19:00 -3°C° 0 mm 1 mps 656 mmHg 84%
    20:00 -3°C° 0 mm 1 mps 656 mmHg 86%
    21:00 -3°C° 0 mm 1 mps 656 mmHg 85%
    22:00 -4°C° 0 mm 1 mps 655 mmHg 84%
    23:00 -4°C° 0 mm 1 mps 655 mmHg 83%

    Tomorrow, 19 January, Sunday

    Time Temperature Precipitation Wind Pressure Humidity
    00:00 -4°C° 0 mm 1 mps 655 mmHg 81%
    01:00 -4°C° 0 mm 1 mps 655 mmHg 80%
    02:00 -5°C° 0 mm 0 mps 655 mmHg 78%
    03:00 -4°C° 0 mm 1 mps 655 mmHg 77%
    04:00 -4°C° 0 mm 1 mps 655 mmHg 76%
    05:00 -4°C° 0 mm 1 mps 654 mmHg 75%
    06:00 -6°C° 0 mm 1 mps 654 mmHg 76%
    07:00 -6°C° 0 mm 0 mps 655 mmHg 78%
    08:00 -6°C° 0 mm 0 mps 655 mmHg 79%
    09:00 -4°C° 0 mm 1 mps 656 mmHg 71%
    10:00 -2°C° 0 mm 1 mps 656 mmHg 64%
    11:00 0°C° 0 mm 1 mps 657 mmHg 56%
    12:00 0°C° 0 mm 1 mps 657 mmHg 55%
    13:00 +1°C° 0 mm 1 mps 657 mmHg 54%
    14:00 -1°C° 0 mm 2 mps 657 mmHg 53%
    15:00 0°C° 0 mm 1 mps 657 mmHg 63%
    16:00 -1°C° 0 mm 1 mps 657 mmHg 72%
    17:00 -3°C° 0 mm 1 mps 657 mmHg 82%
    18:00 -3°C° 0 mm 1 mps 657 mmHg 84%
    19:00 -4°C° 0 mm 1 mps 657 mmHg 87%
    20:00 -6°C° 0 mm 1 mps 658 mmHg 89%
    21:00 -6°C° 0 mm 1 mps 658 mmHg 88%
    22:00 -6°C° 0 mm 1 mps 659 mmHg 88%
    23:00 -6°C° 0 mm 1 mps 659 mmHg 87%

    Day after tomorrow, 20 January, Monday

    Time Temperature Precipitation Wind Pressure Humidity
    00:00 -6°C° 0 mm 1 mps 660 mmHg 86%
    01:00 -6°C° 0 mm 1 mps 660 mmHg 85%
    02:00 -6°C° 0 mm 1 mps 660 mmHg 84%
    03:00 -6°C° 0 mm 1 mps 661 mmHg 85%
    04:00 -7°C° 0 mm 2 mps 661 mmHg 85%
    05:00 -7°C° 0 mm 2 mps 661 mmHg 86%
    06:00 -7°C° 0 mm 2 mps 662 mmHg 85%
    07:00 -7°C° 0 mm 1 mps 662 mmHg 85%
    08:00 -7°C° 0 mm 1 mps 662 mmHg 84%
    09:00 -4°C° 0 mm 1 mps 663 mmHg 73%
    10:00 -2°C° 0 mm 1 mps 664 mmHg 63%
    11:00 -1°C° 0 mm 1 mps 665 mmHg 52%
    12:00 0°C° 0 mm 1 mps 666 mmHg 48%
    13:00 -1°C° 0 mm 2 mps 666 mmHg 45%
    14:00 +1°C° 0 mm 2 mps 666 mmHg 41%
    15:00 -2°C° 0 mm 2 mps 666 mmHg 49%
    16:00 -1°C° 0 mm 1 mps 666 mmHg 56%
    17:00 -2°C° 0 mm 1 mps 666 mmHg 63%
    18:00 -3°C° 0 mm 1 mps 666 mmHg 65%
    19:00 -4°C° 0 mm 1 mps 666 mmHg 68%
    20:00 -4°C° 0 mm 1 mps 666 mmHg 70%
    21:00 -6°C° 0 mm 1 mps 666 mmHg 65%
    22:00 -6°C° 0 mm 1 mps 666 mmHg 61%
    23:00 -6°C° 0 mm 1 mps 667 mmHg 56%

    21 January, Tuesday

    Time Temperature Precipitation Wind Pressure Humidity
    00:00 -4°C° 0 mm 1 mps 667 mmHg 51%
    01:00 -4°C° 0 mm 1 mps 667 mmHg 46%
    02:00 -4°C° 0 mm 1 mps 667 mmHg 41%
    03:00 -4°C° 0 mm 1 mps 667 mmHg 38%
    04:00 -4°C° 0 mm 1 mps 666 mmHg 36%
    05:00 -6°C° 0 mm 1 mps 666 mmHg 33%
    06:00 -4°C° 0 mm 1 mps 666 mmHg 32%
    07:00 -4°C° 0 mm 1 mps 666 mmHg 31%
    08:00 -4°C° 0 mm 1 mps 666 mmHg 30%
    09:00 -2°C° 0 mm 1 mps 667 mmHg 28%
    10:00 0°C° 0 mm 1 mps 668 mmHg 27%
    11:00 +3°C° 0 mm 1 mps 669 mmHg 25%
    12:00 +3°C° 0 mm 1 mps 668 mmHg 26%
    13:00 +4°C° 0 mm 1 mps 668 mmHg 28%
    14:00 +4°C° 0 mm 1 mps 668 mmHg 29%
    15:00 +3°C° 0 mm 1 mps 667 mmHg 36%
    16:00 +1°C° 0 mm 1 mps 666 mmHg 44%
    17:00 -1°C° 0 mm 0 mps 665 mmHg 51%
    18:00 -1°C° 0 mm 1 mps 665 mmHg 52%
    19:00 -2°C° 0 mm 1 mps 665 mmHg 53%
    20:00 -2°C° 0 mm 1 mps 665 mmHg 54%
    21:00 -2°C° 0 mm 1 mps 664 mmHg 53%
    22:00 -2°C° 0 mm 1 mps 664 mmHg 51%
    23:00 -2°C° 0 mm 1 mps 664 mmHg 50%

    22 January, Wednesday

    Time Temperature Precipitation Wind Pressure Humidity
    00:00 -2°C° 0 mm 1 mps 664 mmHg 49%
    01:00 -2°C° 0 mm 1 mps 663 mmHg 48%
    02:00 -2°C° 0 mm 1 mps 663 mmHg 47%
    03:00 -2°C° 0 mm 1 mps 663 mmHg 45%
    04:00 -2°C° 0 mm 1 mps 662 mmHg 44%
    05:00 -2°C° 0 mm 1 mps 662 mmHg 42%
    06:00 -2°C° 0 mm 1 mps 662 mmHg 40%
    07:00 -2°C° 0 mm 1 mps 662 mmHg 38%
    08:00 -1°C° 0 mm 1 mps 661 mmHg 37%
    09:00 +1°C° 0 mm 1 mps 662 mmHg 34%
    10:00 +3°C° 0 mm 1 mps 663 mmHg 31%
    11:00 +5°C° 0 mm 1 mps 663 mmHg 28%
    12:00 +6°C° 0 mm 1 mps 663 mmHg 29%
    13:00 +6°C° 0 mm 1 mps 662 mmHg 31%
    14:00 +7°C° 0 mm 1 mps 662 mmHg 32%
    15:00 +5°C° 0 mm 1 mps 661 mmHg 40%
    16:00 +4°C° 0 mm 1 mps 660 mmHg 48%
    17:00 +2°C° 0 mm 1 mps 659 mmHg 55%
    18:00 +1°C° 0 mm 1 mps 658 mmHg 53%
    19:00 +1°C° 0 mm 1 mps 658 mmHg 51%
    20:00 0°C° 0 mm 1 mps 658 mmHg 49%
    21:00 0°C° 0 mm 1 mps 658 mmHg 44%
    22:00 0°C° 0 mm 1 mps 657 mmHg 40%
    23:00 0°C° 0 mm 1 mps 657 mmHg 35%

    23 January, Thursday

    Time Temperature Precipitation Wind Pressure Humidity
    00:00 0°C° 0 mm 1 mps 657 mmHg 32%
    01:00 -2°C° 0 mm 2 mps 657 mmHg 29%
    02:00 -1°C° 0 mm 2 mps 657 mmHg 25%
    03:00 -2°C° 0 mm 2 mps 657 mmHg 24%
    04:00 -2°C° 0 mm 2 mps 656 mmHg 23%
    05:00 -2°C° 0 mm 2 mps 656 mmHg 22%
    06:00 0°C° 0 mm 1 mps 656 mmHg 22%
    07:00 0°C° 0 mm 1 mps 657 mmHg 22%
    08:00 0°C° 0 mm 1 mps 657 mmHg 22%
    09:00 +2°C° 0 mm 1 mps 658 mmHg 23%
    10:00 +4°C° 0 mm 1 mps 659 mmHg 24%
    11:00 +6°C° 0 mm 1 mps 659 mmHg 25%
    12:00 +6°C° 0 mm 1 mps 659 mmHg 28%
    13:00 +6°C° 0 mm 1 mps 659 mmHg 32%
    14:00 +5°C° 0 mm 2 mps 659 mmHg 36%
    15:00 +4°C° 0 mm 1 mps 659 mmHg 44%
    16:00 +2°C° 0 mm 1 mps 658 mmHg 53%
    17:00 +1°C° 0 mm 1 mps 657 mmHg 61%
    18:00 0°C° 0 mm 1 mps 657 mmHg 63%
    19:00 -1°C° 0 mm 1 mps 657 mmHg 66%
    20:00 -2°C° 0 mm 1 mps 657 mmHg 68%
    21:00 -2°C° 0 mm 1 mps 657 mmHg 67%
    22:00 -2°C° 0 mm 1 mps 658 mmHg 67%
    23:00 -2°C° 0 mm 1 mps 658 mmHg 67%
    Show more